Location: Tucson
(32.2220°N, 110.9260°W)
Time: 03:59:55
(UTC-07:00)

ISS - Visible Passes

Search period start: 18 February 2018 00:00
Search period end: 28 February 2018 00:00
Orbit: 403 x 407 km, 51.6° (Epoch: 19 February)

Date Brightness Start Highest point End Pass type
(mag) Time Alt. Az. Time Alt. Az. Time Alt. Az.
22 Feb -0.5 06:21:22 10° SSE 06:22:44 12° SE 06:24:06 10° E visible
24 Feb -2.1 06:11:28 10° SSW 06:14:28 34° SE 06:17:28 10° ENE visible
25 Feb -0.9 05:20:16 10° SSE 05:22:20 16° SE 05:24:26 10° E visible
26 Feb -3.9 06:03:17 12° SW 06:06:16 72° NW 06:09:32 10° NE visible
27 Feb -3.0 05:13:56 46° SE 05:14:01 47° SE 05:17:10 10° ENE visible
